Weather History for Biloxi, MS

Change the Weather History Date:

Wednesday, July 18, 2012

  Actual Average Record
Temperature  
Mean Temperature 80 °F -  
Max Temperature 90 °F 90 °F 100 °F (2000)
Min Temperature 73 °F 74 °F 67 °F (1967)
Cooling Degree Days 16    
Growing Degree Days 30 (Base 50)    
Moisture  
Dew Point 71 °F    
Average Humidity 81    
Maximum Humidity 89    
Minimum Humidity 56    
Precipitation  
Precipitation 0.83 in - - ()
Sea Level Pressure  
Sea Level Pressure 30.04 in    
Wind  
Wind Speed 4 mph (North)    
Max Wind Speed 12 mph    
Max Gust Speed 16 mph    
Visibility 6 miles    
Events Rain , Thunderstorm    
Averages and records for this station are not official NWS values.
T = Trace of Precipitation, MM = Missing Value Source: NWS Daily Summary

Daily Weather History Graph

Daily Weather History Graph

Search for Another Location

Airport:

Trip Planner

Search our weather history database for the weather conditions in past years. The results will help you decide how hot, cold, wet, or windy it might be!

Date:

Astronomy

Jul. 18, 2012 Rise Set
Actual Time 6:05 AM CDT 7:57 PM CDT
Civil Twilight 5:39 AM CDT 8:24 PM CDT
Nautical Twilight 5:06 AM CDT 8:56 PM CDT
Astronomical Twilight 4:32 AM CDT 9:31 PM CDT
Moon 5:37 AM CDT (7/18) 7:32 PM CDT (7/18)
Length of Visible Light 14h 45m
Length of Day
13h 51m
Waning Crescent, 0% of the Moon is Illuminated
Jul 18
Waning Crescent
Jul 18
New
Jul 26
First Quarter
Aug 1
Full
Aug 9
Last Quarter

Hourly Weather History & Observations

Time (CDT) Temp. Heat Index Dew Point Humidity Pressure Visibility Wind Dir Wind Speed Gust Speed Precip Events Conditions
12:55 AM 75.7 °F - 71.1 °F 85% 30.02 in 10.0 mi Calm Calm - N/A   Clear
1:55 AM 73.9 °F - 69.4 °F 86% 29.99 in 10.0 mi Calm Calm - N/A   Clear
2:55 AM 73.8 °F - 69.3 °F 86% 29.97 in 10.0 mi Calm Calm - N/A   Clear
3:55 AM 73.9 °F - 69.4 °F 86% 30.01 in 10.0 mi NNE 3.5 mph - N/A   Scattered Clouds
4:55 AM 74.3 °F - 70.2 °F 87% 30.03 in 10.0 mi NE 6.9 mph - N/A   Mostly Cloudy
5:55 AM 74.8 °F - 70.3 °F 86% 30.03 in 10.0 mi NE 3.5 mph - N/A Thunderstorm Mostly Cloudy
6:55 AM 76.1 °F - 70.9 °F 84% 30.05 in 10.0 mi Calm Calm - N/A   Overcast
7:55 AM 78.3 °F - 70.9 °F 78% 30.06 in 10.0 mi Calm Calm - N/A   Clear
8:55 AM 82.0 °F 86.7 °F 71.6 °F 71% 30.06 in 10.0 mi Calm Calm - N/A   Clear
9:55 AM 85.6 °F 91.1 °F 71.4 °F 62% 30.07 in 10.0 mi WSW 3.5 mph - N/A   Clear
10:55 AM 88.3 °F 94.1 °F 71.1 °F 56% 30.06 in 10.0 mi Variable 3.5 mph - N/A   Clear
11:55 AM 88.7 °F 96.7 °F 73.0 °F 60% 30.06 in 10.0 mi SSW 6.9 mph - N/A   Partly Cloudy
12:55 PM 85.1 °F 93.7 °F 75.0 °F 72% 30.04 in 10.0 mi SW 10.4 mph - N/A   Mostly Cloudy
1:00 PM 86.0 °F 95.1 °F 75.2 °F 70% 30.02 in 10.0 mi SW 9.2 mph - N/A Thunderstorm Thunderstorm
1:04 PM 86.0 °F 95.1 °F 75.2 °F 70% 30.03 in 10.0 mi SW 9.2 mph - N/A Thunderstorm Thunderstorm
1:21 PM 84.2 °F 92.3 °F 75.2 °F 74% 30.04 in 3.0 mi Variable 5.8 mph - N/A Rain , Thunderstorm Light Thunderstorms and Rain
1:23 PM 84.2 °F 92.3 °F 75.2 °F 74% 30.04 in 1.2 mi WNW 9.2 mph - N/A Rain , Thunderstorm Heavy Thunderstorms and Rain
1:25 PM 82.4 °F 89.5 °F 75.2 °F 79% 30.05 in 1.0 mi Variable 6.9 mph - N/A Rain , Thunderstorm Heavy Thunderstorms and Rain
1:27 PM 80.6 °F 85.4 °F 73.4 °F 79% 30.05 in 0.8 mi Variable 4.6 mph - N/A Rain , Thunderstorm Heavy Thunderstorms and Rain
1:30 PM 78.8 °F - 71.6 °F 78% 30.05 in 0.5 mi Calm Calm - N/A Rain , Thunderstorm Heavy Thunderstorms and Rain
1:31 PM 78.8 °F - 71.6 °F 78% 30.04 in 0.5 mi Calm Calm - N/A Rain , Thunderstorm Heavy Thunderstorms and Rain
1:36 PM 77.0 °F - 69.8 °F 78% 30.04 in 0.5 mi SSW 4.6 mph - N/A Rain , Thunderstorm Heavy Thunderstorms and Rain
1:37 PM 77.0 °F - 69.8 °F 78% 30.04 in 0.5 mi SSW 5.8 mph - N/A Rain , Thunderstorm Heavy Thunderstorms and Rain
1:40 PM 77.0 °F - 69.8 °F 78% 30.04 in 0.8 mi SSE 4.6 mph - N/A Rain , Thunderstorm Heavy Thunderstorms and Rain
1:43 PM 77.0 °F - 69.8 °F 78% 30.05 in 1.0 mi SE 3.5 mph - N/A Rain , Thunderstorm Heavy Thunderstorms and Rain
1:44 PM 77.0 °F - 69.8 °F 78% 30.06 in 1.2 mi Calm Calm - N/A Rain , Thunderstorm Heavy Thunderstorms and Rain
1:46 PM 77.0 °F - 69.8 °F 78% 30.06 in 1.5 mi Calm Calm - N/A Rain , Thunderstorm Heavy Thunderstorms and Rain
1:54 PM 77.0 °F - 68.0 °F 74% 30.05 in 1.8 mi SE 5.8 mph - N/A Rain , Thunderstorm Heavy Thunderstorms and Rain
1:55 PM 76.6 °F - 69.1 °F 77% 30.05 in 2.0 mi Variable 5.8 mph - 0.38 in Rain , Thunderstorm Heavy Thunderstorms and Rain
1:58 PM 77.0 °F - 69.8 °F 78% 30.06 in 1.8 mi NE 11.5 mph - N/A Rain , Thunderstorm Light Thunderstorms and Rain
2:01 PM 75.2 °F - 69.8 °F 83% 30.05 in 1.5 mi NE 11.5 mph - N/A Rain , Thunderstorm Heavy Thunderstorms and Rain
2:05 PM 75.2 °F - 69.8 °F 83% 30.04 in 1.2 mi East 5.8 mph - N/A Rain , Thunderstorm Heavy Thunderstorms and Rain
2:10 PM 75.2 °F - 69.8 °F 83% 30.05 in 1.5 mi East 10.4 mph - N/A Rain , Thunderstorm Heavy Thunderstorms and Rain
2:13 PM 75.2 °F - 69.8 °F 83% 30.05 in 1.8 mi NE 9.2 mph - N/A Rain , Thunderstorm Heavy Thunderstorms and Rain
2:15 PM 75.2 °F - 69.8 °F 83% 30.05 in 2.0 mi NNE 9.2 mph - N/A Rain , Thunderstorm Heavy Thunderstorms and Rain
2:17 PM 75.2 °F - 69.8 °F 83% 30.05 in 2.5 mi NE 9.2 mph - N/A Rain , Thunderstorm Thunderstorms and Rain
2:19 PM 75.2 °F - 69.8 °F 83% 30.04 in 3.0 mi NE 11.5 mph - N/A Rain , Thunderstorm Thunderstorms and Rain
2:55 PM 74.3 °F - 69.1 °F 84% 30.01 in 6.0 mi NNE 5.8 mph - 0.24 in Rain , Thunderstorm Light Thunderstorms and Rain
3:03 PM 75.2 °F - 69.8 °F 83% 30.02 in 8.0 mi NNE 3.5 mph - N/A Rain , Thunderstorm Light Rain
3:23 PM 75.2 °F - 69.8 °F 83% 30.04 in 10.0 mi NNW 4.6 mph - N/A   Mostly Cloudy
3:34 PM 73.4 °F - 69.8 °F 88% 30.04 in 10.0 mi NNW 10.4 mph 16.1 mph N/A Rain , Thunderstorm Light Rain
3:55 PM 74.3 °F - 70.5 °F 88% 30.04 in 10.0 mi NW 9.2 mph - 0.02 in Rain , Thunderstorm Light Rain
4:00 PM 75.2 °F - 69.8 °F 83% 30.04 in 10.0 mi NW 6.9 mph - N/A   Mostly Cloudy
4:13 PM 75.2 °F - 71.6 °F 89% 30.04 in 10.0 mi West 6.9 mph - N/A Rain , Thunderstorm Light Rain
4:15 PM 75.2 °F - 71.6 °F 89% 30.04 in 10.0 mi West 8.1 mph - N/A Rain , Thunderstorm Light Thunderstorms and Rain
4:30 PM 75.2 °F - 69.8 °F 83% 30.04 in 10.0 mi West 5.8 mph - N/A Rain , Thunderstorm Light Rain
4:55 PM 74.7 °F - 69.6 °F 84% 30.05 in 10.0 mi Calm Calm - 0.02 in Rain Light Rain
5:55 PM 75.0 °F - 70.3 °F 85% 30.05 in 7.0 mi NNE 5.8 mph - 0.02 in Rain Light Rain
6:55 PM 74.1 °F - 70.3 °F 88% 30.07 in 8.0 mi North 9.2 mph - 0.05 in Rain Light Rain
7:55 PM 73.9 °F - 70.0 °F 87% 30.05 in 9.0 mi NNE 4.6 mph - 0.07 in Rain Light Rain
8:55 PM 73.8 °F - 70.0 °F 88% 30.04 in 10.0 mi Calm Calm - 0.02 in Rain Light Rain
9:24 PM 73.4 °F - 69.8 °F 88% 30.05 in 10.0 mi Calm Calm - N/A   Clear
9:55 PM 73.9 °F - 70.5 °F 89% 30.08 in 10.0 mi WNW 3.5 mph - 0.01 in   Clear
10:55 PM 74.1 °F - 70.5 °F 88% 30.07 in 10.0 mi NW 3.5 mph - N/A   Mostly Cloudy
11:55 PM 75.0 °F - 71.2 °F 88% 30.07 in 10.0 mi Calm Calm - N/A   Overcast